Regional Weather Roundup
Issued by NWS Sioux Falls, SD

Home | Current Version | Previous Version | Text Only | Print | Product List | Glossary Off
Versions: 1 2 3 4 5 6 7 8 9 10 11 12 13 14 15 16 17 18 19 20 21 22 23 24 25 26 27 28 29 30 31 32 33 34 35 36 37 38 39 40 41 42 43 44 45 46 47 48 49 50

000
ASUS43 KFSD 250402
RWRFSD

WEATHER ROUNDUP FOR SE SOUTH DAKOTA/SW MINNESOTA/NW IOWA
NATIONAL WEATHER SERVICE SIOUX FALLS SD
1100 PM CDT WED MAY 24 2017

NOTE: "FAIR" INDICATES FEW OR NO CLOUDS BELOW 12,000 FEET WITH NO
SIGNIFICANT WEATHER AND OR OBSTRUCTIONS TO VISIBILITY.


SDZ038>040-050-052>070-250500-
SOUTHEAST SOUTH DAKOTA

CITY           SKY/WX    TMP DP  RH WIND       PRES   REMARKS
BROOKINGS      CLEAR     50  44  80 SE10      29.65S
CHAMBERLAIN    NOT AVBL
HURON          CLEAR     53  46  77 SE12      29.56F
MITCHELL       CLEAR     55  46  71 SE13      29.59S
SIOUX FALLS    CLEAR     53  45  74 SE10      29.65R
WINNER         FAIR      60  44  55 SE22G28   29.47S
YANKTON        CLEAR     55  44  66 SE8       29.63R
$$

MNZ071-072-080-081-089-090-097-098-250500-
SOUTHWEST MINNESOTA

CITY           SKY/WX    TMP DP  RH WIND       PRES   REMARKS
FAIRMONT       CLEAR     52  48  86 E5        29.71S
MARSHALL       MOCLDY    53  46  77 SE8       29.68S
REDWOOD FALLS  CLEAR     51  44  77 SE6       29.69R
WORTHINGTON    CLEAR     48  45  89 SE5       29.69S
$$

IAZ001>003-012>014-020>022-031-032-NEZ013-014-SDZ071-250500-
NORTHWEST IOWA

CITY           SKY/WX    TMP DP  RH WIND       PRES   REMARKS
CHEROKEE       CLEAR     49  47  91 E3        29.69S
DENISON        CLEAR     52  46  82 E5        29.71R
ESTHERVILLE    CLEAR     49  48  97 CALM      29.70R
LE MARS        CLEAR     55  45  67 SE7       29.67S
ORANGE CITY    CLEAR     54  48  82 E5        29.68R
SHELDON        CLEAR     50  45  81 E7        29.67S
SIOUX CITY     CLEAR     51  46  83 SE7       29.66S
SPENCER        CLEAR     49  44  83 E5        29.69S
STORM LAKE     CLEAR     54  45  71 E9        29.69S
$$

ABBREVIATIONS USED IN REMARKS
   TC - TEMPERATURE IN CELSIUS
  WCI - WIND CHILL INDEX
   HX - HEAT INDEX
  VSB - VISIBILITY





USA.gov is the U.S. government's official web portal to all federal, state and local government web resources and services.